Regional Weather Roundup
Issued by NWS

Home | Current Version | Previous Version | Graphics & Text | Print | Product List | Glossary On
Versions: 1 2 3 4 5 6 7 8 9 10 11 12 13 14 15 16 17 18 19 20 21 22 23 24 25 26 27 28 29 30 31 32 33 34 35 36 37 38 39 40 41 42 43 44 45 46 47 48 49 50
061
ASUS43 KOAX 262003
RWRNE

WEATHER ROUNDUP FOR NEBRASKA
NATIONAL WEATHER SERVICE OMAHA NE
300 PM CDT SAT MAY 26 2018

NOTES: SATELLITE DATA IS BEING USED TO AUGMENT CLOUD COVER ABOVE
       12000 FEET.
       "FAIR" INDICATES FEW OR NO CLOUDS BELOW 12,000 FEET WITH NO
       SIGNIFICANT WEATHER AND/OR OBSTRUCTIONS TO VISIBILITY.


NEZ001>004-019>022-054>056-262100-
NEBRASKA PANHANDLE

CITY           SKY/WX    TMP DP  RH WIND       PRES   REMARKS
SCOTTSBLUFF    SUNNY     92  58  31 SE12G21   29.80F HX  91
ALLIANCE       SUNNY     90  52  27 S24G37    29.82F
CHADRON        SUNNY     90  59  35 SW14      29.75F
GORDON         FAIR      91  52  25 S14       29.80F
KIMBALL        SUNNY     86  50  28 S14       29.88F
SIDNEY         SUNNY     94  47  20 S22G28    29.84F HX  90
$$

NEZ057>060-069>072-079>082-262100-
SOUTHWEST NEBRASKA

CITY           SKY/WX    TMP DP  RH WIND       PRES   REMARKS
NORTH PLATTE   SUNNY     93  63  36 S13G21    29.81F HX  94
IMPERIAL       SUNNY     97  43  15 S23G36    29.81F HX  93
LEXINGTON      SUNNY     91  63  38 S9        29.83F HX  92
MCCOOK         SUNNY     94  54  25 S13G23    29.80F HX  92
OGALLALA       SUNNY     94  46  18 S16G28    29.81F HX  90
$$

NEZ005>010-023>029-035>040-094-262100-
NORTH CENTRAL NEBRASKA

CITY           SKY/WX    TMP DP  RH WIND       PRES   REMARKS
VALENTINE      SUNNY     92  62  36 SE16      29.80F HX  92
AINSWORTH      SUNNY     88  65  46 S9G18     29.82F HX  90
BROKEN BOW     SUNNY     93  57  29 S9G21     29.83S HX  91
O`NEILL        SUNNY     92  60  33 S8        29.81S HX  91
ORD            SUNNY     92  62  36 S8        29.79F HX  92
THEDFORD       SUNNY     92  57  31 S12       29.83F HX  90
$$

NEZ041-046>049-061>064-073>077-083>087-262100-
SOUTH CENTRAL NEBRASKA

CITY           SKY/WX    TMP DP  RH WIND       PRES   REMARKS
GRAND ISLAND   MOSUNNY   98  60  28 SW8G17    29.79F HX  98
AURORA         MOSUNNY   96  55  25 SW9       29.79S HX  93
HASTINGS       SUNNY     95  56  26 S10       29.81F HX  93
HEBRON         SUNNY    100  50  18 S8        29.78F HX  96
HOLDREGE       SUNNY     94  59  30 S12       29.82F HX  93
KEARNEY        SUNNY     95  56  26 S12       29.81F HX  93
YORK           SUNNY     95  59  30 NW3       29.78F HX  94
$$

NEZ011>018-030>034-042>045-262100-
NORTHEAST NEBRASKA

CITY           SKY/WX    TMP DP  RH WIND       PRES   REMARKS
NORFOLK        SUNNY     94  56  27 VRB5      29.75F HX  92
ALBION         SUNNY     94  58  29 SE3       29.79F HX  93
BLAIR          SUNNY     94  57  28 NE7       29.78S HX  93
COLUMBUS       SUNNY     96  56  26 S5        29.78F HX  94
FREMONT        SUNNY     97  57  26 S6        29.77S HX  95
TEKAMAH        SUNNY     97  53  22 VRB6      29.75F HX  94
WAYNE          SUNNY     94  57  29 CALM      29.76F HX  93
$$

NEZ050>053-065>068-078-088>093-262100-
SOUTHEAST NEBRASKA

CITY           SKY/WX    TMP DP  RH WIND       PRES   REMARKS
LINCOLN        SUNNY     98  57  25 VRB3      29.76F HX  97
OMAHA EPPLEY   MOSUNNY   99  54  22 W7        29.75S HX  97
BEATRICE       MOSUNNY   99  60  27 N7        29.77F HX  99
FALLS CITY     SUNNY    100  52  19 MISG      29.74F HX  97
NEBRASKA CITY  SUNNY     96  62  32 S3        29.76F HX  96
PLATTSMOUTH    SUNNY     96  59  29 CALM      29.76F HX  96
$$

NEZ044-045-051>053-067-262100-
OMAHA AREA

CITY           SKY/WX    TMP DP  RH WIND       PRES   REMARKS
OMAHA EPPLEY   MOSUNNY   99  54  22 W7        29.75S HX  97
BLAIR          SUNNY     94  57  28 NE7       29.78S HX  93
FREMONT        SUNNY     97  57  26 S6        29.77S HX  95
MILLARD        SUNNY     96  60  29 CALM      29.76S HX  96
OFFUTT AFB     SUNNY     97  58  27 CALM      29.75S HX  96
PLATTSMOUTH    SUNNY     96  59  29 CALM      29.76F HX  96
WAHOO          FAIR      99  47  17 W8        29.76F HX  95
$$




USA.gov is the U.S. government's official web portal to all federal, state and local government web resources and services.